Location: Brunembert
(50.7122°N, 1.8935°E)
Time: 04:23:37
(UTC+00:00)

USA 229 DEB - Pass Details

Date: 22 April 2021
Orbit: 960 x 1252 km, 63.4° (Epoch: 23 April)

Event Time Altitude Azimuth Distance (km) Brightness Sun altitude
Rises 20:23:40 0° 311° (NW) 3,886 8.8 -12.4°
Reaches altitude 10° 20:26:23 10° 317° (NW) 2,971 7.5 -12.8°
Maximum altitude 20:33:15 48° 32° (NNE) 1,479 4.5 -13.6°
Enters shadow 20:39:35 14° 102° (ESE) 2,842 5.4 -14.3°
